Weather History for Hayward, WI

Change the Weather History Date:

Tuesday, February 26, 2013

  Actual Average Record
Temperature  
Mean Temperature 21 °F -  
Max Temperature 39 °F 36 °F 41 °F (1998)
Min Temperature 3 °F 17 °F -17 °F (2006)
Degree Days  
Heating Degree Days 44    
Moisture  
Dew Point 16 °F    
Average Humidity 74    
Maximum Humidity 88    
Minimum Humidity 55    
Precipitation  
Precipitation 0.00 in - - ()
Sea Level Pressure  
Sea Level Pressure 30.01 in    
Wind  
Wind Speed 4 mph (NE)    
Max Wind Speed 13 mph    
Max Gust Speed 23 mph    
Visibility 9 miles    
Events      
Averages and records for this station are not official NWS values.
T = Trace of Precipitation, MM = Missing Value Source: NWS Daily Summary

Daily Weather History Graph

Daily Weather History Graph

Search for Another Location

Airport:

Trip Planner

Search our weather history database for the weather conditions in past years. The results will help you decide how hot, cold, wet, or windy it might be!

Date:

Astronomy

Feb. 26, 2013 Rise Set
Actual Time 6:49 AM CST 5:48 PM CST
Civil Twilight 6:19 AM CST 6:18 PM CST
Nautical Twilight 5:44 AM CST 6:53 PM CST
Astronomical Twilight 5:10 AM CST 7:27 PM CST
Moon 7:12 PM CST (2/26) 6:46 AM CST (2/26)
Length of Visible Light 11h 59m
Length of Day
10h 58m
Full, 99% of the Moon is Illuminated
Feb 26
Full
Mar 4
Last Quarter
Mar 11
New
Mar 19
First Quarter
Mar 27
Full

Hourly Weather History & Observations

Time (CST) Temp. Windchill Dew Point Humidity Pressure Visibility Wind Dir Wind Speed Gust Speed Precip Events Conditions
12:53 AM 6.1 °F - 1.0 °F 80% 30.13 in 8.0 mi Calm Calm - N/A   Clear
1:53 AM 6.1 °F - 1.0 °F 80% 30.14 in 7.0 mi Calm Calm - N/A   Clear
2:53 AM 3.0 °F - -2.0 °F 80% 30.12 in 8.0 mi Calm Calm - N/A   Clear
3:49 AM 3.2 °F - -0.4 °F 85% 30.03 in 7.0 mi Calm Calm - N/A   Partly Cloudy
3:53 AM 3.9 °F - -0.0 °F 84% 30.10 in 8.0 mi Calm Calm - N/A   Clear
4:53 AM 3.0 °F - -0.9 °F 84% 30.09 in 8.0 mi Calm Calm - N/A   Mostly Cloudy
5:06 AM 3.2 °F - -0.4 °F 85% 30.01 in 7.0 mi Calm Calm - N/A   Scattered Clouds
5:53 AM 3.9 °F - -0.0 °F 84% 30.09 in 7.0 mi Calm Calm - N/A   Scattered Clouds
6:00 AM 3.2 °F - -0.4 °F 85% 30.02 in 8.0 mi Calm Calm - N/A   Mostly Cloudy
6:53 AM 12.0 °F 5.9 °F 9.0 °F 88% 30.10 in 6.0 mi NNE 3.5 mph - N/A   Overcast
7:53 AM 15.1 °F 9.4 °F 12.0 °F 88% 30.09 in 5.0 mi North 3.5 mph - N/A   Overcast
8:53 AM 19.0 °F 12.3 °F 15.1 °F 85% 30.08 in 6.0 mi NNE 4.6 mph - N/A   Overcast
9:53 AM 28.9 °F 23.9 °F 25.0 °F 85% 30.06 in 8.0 mi NNE 4.6 mph - N/A   Overcast
10:11 AM 32.0 °F 24.2 °F 24.8 °F 75% 29.99 in 10.0 mi NE 9.2 mph - N/A   Scattered Clouds
10:53 AM 34.0 °F 27.2 °F 25.0 °F 70% 30.04 in 10.0 mi ENE 8.1 mph 18.4 mph N/A   Clear
11:20 AM 35.6 °F 27.1 °F 24.8 °F 65% 29.97 in 10.0 mi NE 12.7 mph - 0.00 in   Mostly Cloudy
11:53 AM 36.0 °F 29.0 °F 24.1 °F 62% 30.04 in 10.0 mi East 9.2 mph - 0.00 in   Scattered Clouds
12:53 PM 39.0 °F 36.8 °F 24.1 °F 55% 30.00 in 10.0 mi Variable 3.5 mph - 0.00 in   Mostly Cloudy
1:53 PM 39.0 °F 33.4 °F 25.0 °F 57% 29.99 in 10.0 mi NNE 8.1 mph - N/A   Mostly Cloudy
2:53 PM 39.0 °F 32.8 °F 25.0 °F 57% 29.98 in 10.0 mi NNE 9.2 mph 16.1 mph N/A   Partly Cloudy
3:18 PM 37.4 °F 30.3 °F 24.8 °F 60% 29.92 in 10.0 mi NNE 10.4 mph 23.0 mph N/A   Mostly Cloudy
3:41 PM 37.4 °F 32.1 °F 24.8 °F 60% 29.92 in 10.0 mi Variable 6.9 mph 18.4 mph N/A   Scattered Clouds
3:53 PM 37.0 °F 32.4 °F 24.1 °F 59% 29.99 in 10.0 mi NNE 5.8 mph 18.4 mph N/A   Partly Cloudy
4:53 PM 35.1 °F 26.4 °F 21.9 °F 59% 29.98 in 10.0 mi NNE 12.7 mph 20.7 mph N/A   Clear
5:53 PM 32.0 °F 24.8 °F 21.9 °F 66% 29.98 in 10.0 mi NNE 8.1 mph 17.3 mph N/A   Clear
6:53 PM 30.9 °F 21.7 °F 23.0 °F 72% 29.98 in 10.0 mi NNE 11.5 mph 18.4 mph N/A   Clear
7:53 PM 30.0 °F 20.5 °F 23.0 °F 75% 29.98 in 10.0 mi NNE 11.5 mph 18.4 mph N/A   Partly Cloudy
8:50 PM 30.2 °F 21.9 °F 23.0 °F 75% 29.91 in 10.0 mi NE 9.2 mph 18.4 mph N/A   Mostly Cloudy
8:53 PM 30.0 °F 24.1 °F 23.0 °F 75% 29.97 in 10.0 mi NNE 5.8 mph 18.4 mph N/A   Mostly Cloudy
9:53 PM 30.0 °F 21.7 °F 23.0 °F 75% 29.95 in 10.0 mi NE 9.2 mph 19.6 mph N/A   Mostly Cloudy
10:36 PM 28.4 °F 18.0 °F 21.2 °F 74% 29.89 in 10.0 mi NNE 12.7 mph 20.7 mph N/A   Scattered Clouds
10:53 PM 28.9 °F 21.1 °F 21.9 °F 75% 29.94 in 10.0 mi NE 8.1 mph 18.4 mph N/A   Mostly Cloudy
11:53 PM 28.9 °F 20.4 °F 21.9 °F 75% 29.93 in 10.0 mi NE 9.2 mph 20.7 mph N/A   Overcast